Regional Weather Roundup
Issued by NWS

Home | Current Version | Previous Version | Text Only | Print | Product List | Glossary On
Versions: 1 2 3 4 5 6 7 8 9 10 11 12 13 14 15 16 17 18 19 20 21 22 23 24 25 26 27 28 29 30 31 32 33 34 35 36 37 38 39 40 41 42 43 44 45 46 47 48 49 50
000
ASUS43 KMKX 261721
RWRWI

WISCONSIN REGIONAL WEATHER ROUNDUP
NATIONAL WEATHER SERVICE MILWAUKEE/SULLIVAN WI
1200 PM CDT SAT JUL 26 2014

NOTE: "FAIR" INDICATES FEW OR NO CLOUDS BELOW 12,000 FEET WITH NO
SIGNIFICANT WEATHER AND/OR OBSTRUCTIONS TO VISIBILITY.

WIZ001-002-006>008-014>016-023>028-261800-
NORTHWEST WISCONSIN

CITY           SKY/WX    TMP DP  RH WIND       PRES   REMARKS
SUPERIOR ARPT  SUNNY     80  59  47 SW7       29.77S HX  81
ASHLAND        SUNNY     79  56  45 NW12G17   29.78S HX  80
HAYWARD        SUNNY     79  54  41 VRB6      29.82R
SIREN          SUNNY     81  55  39 CALM      29.81R HX  81
RICE LAKE      SUNNY     81  54  39 CALM      29.83R HX  81
LADYSMITH      SUNNY     81  56  43 W9        29.84R HX  81
EAU CLAIRE     MOSUNNY   82  63  52 NW7       29.81R HX  83
MENOMONIE      MOSUNNY   81  64  56 W5        29.82S HX  82
NEW RICHMOND   MOSUNNY   79  60  51 W5        29.84R HX  80
OSCEOLA        SUNNY     80  56  44 SW3       29.85R HX  80
$$

WIZ003>005-009-010-017-018-261800-
NORTH CENTRAL WISCONSIN

CITY           SKY/WX    TMP DP  RH WIND       PRES   REMARKS
WOODRUFF       SUNNY     80  61  52 NW10      29.80R HX  81
RHINELANDER    MOSUNNY   77  62  59 W14       29.80F
EAGLE RIVER    CLOUDY    73  62  69 W7        29.78F
LAND O LAKES   SUNNY     78  53  42 NW13      29.79F
PHILLIPS       MOSUNNY   77  58  51 NW8       29.82R
TOMAHAWK       MOSUNNY   78  61  56 W13       29.81S
MEDFORD        MOSUNNY   77  65  67 W8        29.83R
MERRILL        PTSUNNY   77  67  70 W8G16     29.80F
$$

WIZ029-030-035-036-043>047-261800-
CENTRAL WISCONSIN

CITY           SKY/WX    TMP DP  RH WIND       PRES   REMARKS
WAUSAU         MOSUNNY   77  67  71 W14       29.80F
MOSINEE        CLOUDY    73  72  94 W6        29.83F FOG
MARSHFIELD     PTSUNNY   77  68  73 NW9       29.82F
STEVENS POINT  CLOUDY    70  65  86 W8        29.83S
WAUPACA        MOSUNNY   83  67  58 W8        29.80S HX  86
WAUTOMA        MOSUNNY   79  68  69 VRB3      29.81F HX  81
WISC RAPIDS    CLOUDY    75  67  76 W8        29.83S
CAMP DOUGLAS   PTSUNNY   77  72  83 VRB6      29.82S
$$

WIZ011>013-019>022-031-037>040-048>050-261800-
NORTHEAST WISCONSIN

CITY           SKY/WX    TMP DP  RH WIND       PRES   REMARKS
ANTIGO         CLOUDY    74  67  78 W9        29.81F
STURGEON BAY   CLOUDY    72  64  78 S12       29.78F
GREEN BAY      CLOUDY    74  67  78 SW6       29.79F
MANITOWOC      CLOUDY    76  67  73 W7        29.80F
APPLETON       PTSUNNY   73  64  73 SW17      29.81F
CLINTONVILLE   CLOUDY    77  64  65 NW8       29.79S
OSHKOSH        CLOUDY    75  67  76 VRB6      29.80F
$$

WIZ032>034-041-042-053>061-261800-
SOUTHWEST WISCONSIN

CITY           SKY/WX    TMP DP  RH WIND       PRES   REMARKS
LA CROSSE      CLOUDY    75  68  78 NW3       29.82F
SPARTA         CLOUDY    75  67  75 NW6       29.84R
VIROQUA        PTSUNNY   77  73  87 N5        29.83F
BOSCOBEL       CLOUDY    77  67  71 VRB7      29.81F
PRAIRIE DU CHI CLOUDY    73  66  78 SE5       29.81R
PLATTEVILLE    FAIR      76  69  77 SE6       29.81F
$$

WIZ056-057-062-063-064-067-068-261800-
SOUTH CENTRAL WISCONSIN

CITY           SKY/WX    TMP DP  RH WIND       PRES   REMARKS
BARABOO/DELLS  CLOUDY    78  65  65 S5        29.82F HX  80
LONE ROCK      CLOUDY    77  67  71 CALM      29.81F
WATERTOWN      CLOUDY    74  66  76 E6        29.78F
MADISON        CLOUDY    77  66  68 SW6       29.84F
MIDDLETON      FAIR      78  66  66 NW6       29.85R
MONROE         PTSUNNY   77  66  69 E3        29.82F
JANESVILLE     MOSUNNY   79  64  61 N6        29.84F HX  81
$$

WIZ051-052-058>065-066-070>072-261800-
SOUTHEAST WISCONSIN

CITY           SKY/WX    TMP DP  RH WIND       PRES   REMARKS
MILWAUKEE      PTSUNNY   74  62  66 SE12      29.82F
WAUKESHA       CLOUDY    73  61  64 SW6       29.83F
MILWAUKEE/TIMM MOSUNNY   75  59  57 W5        29.83F
RACINE         MOSUNNY   73  62  68 SE7       29.87F
BURLINGTON     MOSUNNY   75  64  67 NW7       29.85S
KENOSHA        CLOUDY    76  65  68 CALM      29.86F
FOND DU LAC    CLOUDY    77  66  68 SW8       29.82F
SHEBOYGAN      CLOUDY    76  66  71 W6        29.81F
WEST BEND      CLOUDY    73  61  64 W7        29.82F
JUNEAU         CLOUDY    74  64  71 SW5       29.83F
$$

LSZ147-162-261800-
LAKE SUPERIOR

STATION/POSITION TIME  TEMP    WIND        PRES    WAVE
                       AIR SEA DIR/SP/G            HT/PER
                 (UTC) (F)     (DEG/KT/KT) (MB)    (FT/S)
W MID LAKE BUOY  1650   52 43  240/ 10/ 12 1006.8F   1/ 2
PORT WING        1600   72     250/  9/ 12 1008.5F
SAXON HARBOR     1640           CALM  /  7 1008.5S
$$

LMZ867-665-643>646-261800-
LAKE MICHIGAN

STATION/POSITION TIME  TEMP    WIND        PRES    WAVE
                       AIR SEA DIR/SP/G            HT/PER
                 (UTC) (F)     (DEG/KT/KT) (MB)    (FT/S)
N MID LAKE BUOY  1650   60 55  220/ 12/ 14 1007.5F   2/ 4
NORTHPORT PIER   1600   66     160/  5/  8 1008.5F
KEWAUNEE LAKESHO 1700   55     160/  8/  9 1009.9F
SHEBOYGAN LAKESH 1700   63     170/ 17/ 17 1009.3F
PORT WASHINGTON  1600   66     180/  4/  7 1011.5R
ATWATER BUOY     1700   63     140/ 10     1010.5F
MILWAUKEE LAKESH 1700   62     140/ 14/ 16   N/A
S MID LAKE BUOY  1650   64 62  180/  4/  4 1011.5R   1
KENOSHA   LAKESH 1700   69     140/  5/  8 1010.5F
$$

TC  - TEMPERATURE IN CELSIUS
VSB - VISIBILITY IN STATUTE MILES
WCI - WIND CHILL INDEX
HX  - HEAT INDEX



USA.gov is the U.S. government's official web portal to all federal, state and local government web resources and services.